星链-31647 (STARLINK-31647 )

导读 | 星芒AI

STARLINK-31647 是 SpaceX Starlink 卫星互联网项目中的一颗低轨卫星,属于第三代星链卫星(v1.5 或 v2 版本)。该卫星于 2023 年发射,运行在约 550 公里的轨道高度,旨在为全球用户提供高速、低延迟的互联网服务。它采用先进的推进系统和激光通信技术,提高网络效率和稳定性。Starlink 项目计划部署数万颗卫星,以构建覆盖全球的宽带网络,尤其服务于偏远和网络基础设施薄弱的地区。STARLINK-31647 作为其中一员,为实现这一目标贡献力量。

基本信息
目录编号:
59389
目录名称:
STARLINK-31647
国际标识:
2024-062R
轨道中心:
EARTH
卫星名称:
星链-31647
卫星全名:
星链-31647 (STARLINK-31647 )
卫星状态:
在轨 (已飞行627 天)
发射日期:
2024-04-02 UTC
国别 :
美国 (US)
星等 :
--
轨道信息
数据来源 国际轨道数据
星历时间: 2025-12-19T12:43:55+0800
21小时前
查看轨道信息
半长轴: 6853.395km
偏心率: 0.0001258
轨道倾角: 53.161°
近地点辐角 97.999°
升交点赤经 269.861°
平近点角 262.115°
近地点: 474.395km
远地点: 476.121km
周期: 94.106分钟
每日圈数: 15.301859
详细信息
固有亮度:
5
最大亮度:
0.3
卫星平台:
Starlink v2.0 mini
覆盖范围:
全球
运营商:
太空探索技术公司
运营商所在国:
美国
制造商(研发单位):
太空探索技术公司
制造商所在国:
美国
使用方式:
暂无
卫星简介
星链(Starlink)计划是由太空探索技术公司(SpaceX)提出的一个巨型低轨卫星互联网星座项目,计划在2019年至2024年间在太空搭建由约1.2万颗卫星组成的“星链”网络,其中1584颗将部署在地球上空550千米处的近地轨道,并从2020年开始工作。该卫星仍在工作。
2D轨道图
3D轨道图
轨道高度分析图
轨道倾角分析图
轨道综合分析图
查看轨道综合分析图